Location: Trenton
(45.6167°N, 62.6167°W)
Time: 12:30:10
(UTC+00:00)

ISS - Visible Passes

Search period start: 24 September 2021 00:00
Search period end: 04 October 2021 00:00
Orbit: 419 x 423 km, 51.6° (Epoch: 24 September)

Date Brightness Start Highest point End Pass type
(mag) Time Alt. Az. Time Alt. Az. Time Alt. Az.
24 Sep -1.7 00:27:24 10° WNW 00:29:39 26° NNW 00:29:39 26° NNW visible
24 Sep -2.1 23:40:22 10° WNW 23:43:20 28° N 23:44:30 22° NNE visible
25 Sep -0.1 01:17:28 10° NW 01:17:29 10° NW 01:17:29 10° NW visible
25 Sep -2.2 22:53:15 10° WNW 22:56:16 29° N 22:59:18 10° ENE visible
26 Sep -1.5 00:30:34 10° NW 00:32:19 24° NNW 00:32:19 24° NNW visible
26 Sep -2.5 23:43:36 10° NW 23:46:39 30° N 23:47:07 29° NNE visible
27 Sep -2.2 22:56:36 10° WNW 22:59:35 28° N 23:01:57 14° ENE visible
28 Sep -1.3 00:33:31 10° WNW 00:34:56 22° NW 00:34:56 22° NW visible
28 Sep -3.0 23:46:37 10° NW 23:49:46 44° NNE 23:49:46 44° NNE visible
29 Sep -2.7 22:59:42 10° NW 23:02:51 36° NNE 23:04:37 21° ENE visible
30 Sep -1.0 00:36:31 10° WNW 00:37:37 19° WNW 00:37:37 19° WNW visible
30 Sep -3.4 23:49:34 10° WNW 23:52:30 65° NW 23:52:30 65° NW visible
01 Oct -3.6 23:02:38 10° WNW 23:05:59 61° NNE 23:07:27 30° E visible
02 Oct -0.6 00:39:50 10° W 00:40:27 13° W 00:40:27 13° W visible
02 Oct -3.2 22:15:43 10° NW 22:18:59 45° NNE 22:22:15 10° E visible
02 Oct -2.5 23:52:38 10° WNW 23:55:27 36° SW 23:55:27 36° SW visible
03 Oct -3.4 23:05:35 10° WNW 23:08:55 59° SSW 23:10:32 27° SE visible
